COSMOS 2433 (720)

Last updated on Sat Apr 11 2026 00:03:25 GMT+0000 (Coordinated Universal Time)

1 32275U 07052A 26098.93480380 -.00000026 00000+0 00000+0 0 9990 2 32275 65.6149 318.2651 0000801 244.4219 115.6167 2.13104206143580
UTC large
Height (km)
Speed (km/s)
/
Latitude / Longitude
Inclination (degrees)
Orbital Period (minutes)
Azimuth
Elevation
Range (km)
Doppler Factor

Next 0 passes for location: London (51.5072 / 0.1276)

Sorry there are no passes over London.
COSMOS 2433 (720)